{"data":{"norad_id":64554,"epoch":"2026-09-21T13:10:12.582336Z","epoch_age_seconds":91236,"freshness":"FRESH","line1":"1 64554U 25135AC  26264.54875674  .00015677  00000+0  47682-3 0  9991","line2":"2 64554  97.4710  22.5211 0001078 353.9397   6.1832 15.34117822 69764","mean_motion":15.34117822,"eccentricity":0.0001078,"inclination_deg":97.471,"raan_deg":22.5211,"arg_perigee_deg":353.9397,"mean_anomaly_deg":6.1832,"bstar":0.00047682,"rev_number":6976,"period_min":93.865019971067,"perigee_km":462.8045282381,"apogee_km":464.2795942437,"semimajor_km":6841.6790612409,"source":"CELESTRAK","updated_at":"2026-09-22T09:00:29.845853Z"}}